Wetbulb
55.63 55.20 54.56 54.23 54.47 54.60 54.29 53.87 53.74 53.77 53.60 53.14 52.94 52.59 52.17 52.03 52.48 52.61 52.27 51.91 51.37 51.27 50.97 50.21 50.52 51.68 51.30 51.73 52.52 53.10 53.82 52.47 50.95 53.87 57.67 59.36 60.77 62.37 62.38 63.50 63.59 62.83 63.28
55.72 55.30 54.53 54.46 54.14 53.85 53.37 53.16 53.38 52.89 52.81 52.52 52.01 51.58 51.36 51.32 51.47 50.78 50.06 50.15 49.97 49.61 49.82 50.59 50.23 50.35 50.57 51.41 51.49 51.37 52.37 53.50 52.44 49.63 53.32 55.64 56.85 59.46 60.27 61.57 61.95 62.89 62.72
55.14 54.66 54.16 54.23 53.80 53.62 53.46 53.13 52.86 52.70 52.27 51.87 51.74 51.26 50.96 51.06 50.31 50.46 50.23 49.69 49.63 49.52 49.88 49.97 50.06 50.50 49.69 49.47 50.46 50.43 50.63 51.63 52.80 51.76 52.18 54.97 56.11 58.61 57.67 57.26 57.86 59.27 60.27
54.84 54.25 53.77 53.73 53.61 53.16 52.97 52.80 52.55 52.24 51.75 51.49 51.46 51.19 50.97 50.97 50.60 49.94 49.70 49.73 49.76 49.95 50.72 50.90 50.70 50.36 50.37 50.75 51.10 50.06 50.45 50.62 51.07 49.57 49.16 52.83 55.52 55.82 56.01 54.65 51.82 54.00 55.87
54.52 53.73 53.75 53.89 53.70 53.23 52.76 52.52 52.33 52.08 51.96 51.83 51.13 50.71 50.84 50.74 50.29 50.39 50.63 50.09 50.04 50.58 51.23 51.08 51.37 50.88 50.54 50.77 51.20 51.68 51.01 50.23 51.04 50.15 48.78 49.72 52.54 51.49 51.85 52.52 51.23 49.94 47.55
54.43 53.40 54.14 53.54 52.91 52.91 53.05 52.70 52.63 52.41 52.24 51.68 51.08 50.78 50.44 50.36 45.84 46.12 48.35 50.97 50.04 50.44 50.07 50.75 51.30 50.27 50.33 49.69 50.49 50.40 50.90 50.27 49.84 48.86 49.53 49.66 50.66 51.92 53.11 50.38 46.97 47.00 43.83
54.51 54.10 54.04 53.60 52.96 52.99 53.26 53.07 52.80 52.87 52.83 51.87 50.98 51.22 51.04 51.33 46.36 45.96 46.32 51.06 50.20 50.29 49.96 50.05 49.63 48.69 48.66 50.09 50.07 49.66 50.00 49.76 50.00 49.46 47.51 48.79 50.03 51.15 50.43 48.07 46.82 47.53 45.58
54.89 54.39 54.15 53.69 53.07 53.27 53.33 53.25 53.33 52.95 52.37 51.65 51.34 51.21 51.24 51.04 47.37 45.82 46.39 49.43 50.14 50.13 49.94 50.03 49.31 47.38 48.52 47.37 47.47 47.48 47.26 48.73 49.46 50.88 49.96 48.74 49.18 49.66 50.44 48.93 47.54 47.53 46.41
54.70 54.54 54.49 54.02 53.40 53.22 52.57 53.24 53.75 52.44 51.57 50.80 51.24 50.89 50.54 51.33 47.42 45.80 46.17 49.09 49.57 49.19 50.27 50.14 48.52 48.80 46.97 45.54 46.50 46.66 46.26 46.90 49.76 49.64 48.82 47.69 47.08 47.55 48.99 48.61 46.37 45.18 43.71
55.29 55.43 55.26 55.06 53.95 53.40 53.37 53.36 53.60 52.46 51.48 50.83 50.83 51.22 49.68 51.37 46.67 44.95 46.21 49.40 49.09 48.79 50.53 49.39 47.53 47.09 44.23 43.79 48.94 47.31 45.71 46.30 48.12 48.29 48.78 49.30 49.54 49.72 49.52 49.47 48.48 45.87 45.44
56.63 56.51 55.43 55.24 54.57 54.45 53.83 53.48 52.37 51.32 50.85 50.90 50.56 51.05 51.13 50.88 50.63 44.60 44.42 49.20 49.23 48.67 48.49 48.41 48.69 45.57 43.46 42.88 43.22 47.18 46.02 45.85 46.90 47.80 47.92 48.99 49.25 49.71 50.43 50.38 50.69 49.36 47.85
56.56 55.74 55.12 54.06 54.30 53.32 53.06 52.18 51.74 51.09 50.22 50.15 49.97 49.75 50.31 50.82 46.54 44.46 43.08 43.79 47.54 48.37 48.17 49.37 49.47 43.78 42.45 42.67 43.42 43.96 43.30 45.03 47.85 49.21 48.64 48.01 48.74 48.45 50.13 51.92 52.78 52.55 53.02
54.74 54.62 54.23 51.63 53.33 53.06 52.00 51.16 49.77 50.37 49.60 49.11 48.24 48.28 48.99 49.79 50.27 44.82 42.96 42.80 43.50 46.96 49.35 47.96 43.32 41.84 42.13 44.70 44.27 43.84 43.77 48.76 49.25 50.66 48.23 48.56 49.96 50.81 52.52 52.67 52.68 52.81 53.01
52.38 53.45 52.70 49.57 50.96 51.87 52.06 51.01 49.52 49.17 48.65 48.27 47.92 48.19 49.56 50.07 49.65 50.16 49.63 49.08 45.25 47.31 47.43 48.57 47.15 44.68 42.11 44.47 46.68 49.97 51.00 49.96 49.04 49.05 49.53 50.89 51.83 51.61 51.25 51.99 51.44 52.18 51.61
50.48 50.39 50.08 49.70 49.54 50.87 51.46 50.47 50.29 51.59 49.26 48.19 48.66 49.05 48.71 48.42 49.24 47.50 47.53 49.85 50.34 48.40 48.19 49.69 48.86 48.73 48.74 49.89 50.82 51.73 51.97 52.15 51.41 51.85 51.37 50.71 50.37 51.40 51.22 51.60 50.26 50.09 48.08
50.13 49.62 49.13 48.93 49.31 49.92 49.92 49.50 43.89 44.83 42.73 41.42 42.04 46.67 49.75 44.62 42.47 40.96 40.81 40.52 41.05 40.73 46.77 47.11 47.93 48.96 49.06 50.00 50.64 51.31 52.27 50.97 52.54 52.48 52.12 51.55 50.87 50.53 50.20 50.89 50.03 48.69 47.74
50.78 50.77 50.31 48.68 48.38 48.50 48.74 48.48 47.39 45.72 40.94 40.57 39.67 40.12 41.04 42.99 40.28 40.14 39.68 38.68 38.18 39.13 47.48 48.85 49.03 49.40 49.87 50.69 51.57 51.73 51.55 52.60 53.97 52.68 52.49 52.32 51.90 51.29 49.46 50.24 50.55 50.26 49.96
49.76 46.55 49.93 49.06 49.44 49.49 51.29 50.09 50.32 49.58 48.47 47.59 41.69 41.24 39.93 39.65 39.73 39.28 38.98 39.13 46.97 42.81 49.31 50.16 50.22 51.09 51.27 51.47 52.03 52.05 52.02 52.39 52.39 52.36 52.34 52.47 52.36 51.44 50.76 50.44 50.46 50.32 50.74
48.12 50.21 50.18 49.57 48.93 48.34 50.64 50.72 50.36 49.94 49.61 49.63 50.50 43.40 42.00 39.44 39.10 38.64 37.84 48.04 49.71 50.40 51.35 50.82 51.63 52.01 52.18 52.59 52.58 52.69 52.65 51.79 51.29 51.68 51.85 51.80 51.71 51.15 50.44 51.00 50.93 40.93 43.72
46.44 45.34 46.44 49.46 48.95 47.65 47.90 48.49 49.71 49.66 48.98 49.41 49.95 50.43 51.42 45.39 46.88 47.69 46.73 48.55 50.41 51.26 52.13 52.47 52.69 53.02 53.13 53.08 52.89 52.97 52.66 52.00 52.03 51.84 51.17 50.83 51.00 51.00 50.18 50.22 50.56 50.49 51.03
42.99 44.72 41.07 49.53 49.24 48.84 47.74 47.51 49.05 49.24 49.09 49.70 50.29 50.78 42.09 50.27 50.90 51.34 52.14 51.38 51.61 52.38 53.14 53.47 53.57 53.84 53.66 53.27 53.41 53.14 52.91 53.04 52.83 52.76 52.22 51.73 51.46 50.84 52.24 52.52 52.16 51.94 51.75
39.37 39.96 41.76 44.59 42.50 45.98 47.58 48.51 48.69 49.59 50.20 50.61 51.37 50.38 36.13 50.90 51.98 52.38 52.71 53.22 53.45 53.70 54.45 54.39 54.04 54.36 54.25 54.07 54.05 53.76 53.36 53.22 53.45 53.50 52.86 52.74 52.40 51.61 51.65 51.58 51.12 50.83 50.75
34.87 34.81 35.11 36.00 37.03 35.48 35.64 35.77 36.37 37.10 39.19 42.30 44.74 43.41 43.44 45.43 47.74 49.60 50.72 52.67 53.33 53.76 54.46 54.01 53.92 54.21 54.68 54.78 55.08 54.65 53.71 53.51 54.14 54.12 53.00 52.60 52.13 51.84 51.58 50.87 50.72 50.11 49.69
34.95 34.20 33.34 33.06 32.95 32.17 32.69 32.45 32.65 32.39 32.89 32.92 34.13 35.20 36.12 36.84 37.63 38.31 39.64 41.27 42.33 44.52 49.71 52.79 53.35 53.56 53.81 54.23 54.80 54.91 54.64 54.61 54.71 53.56 53.24 52.40 51.90 49.90 50.23 50.15 50.17 49.55 48.48
36.21 35.35 34.62 33.89 33.36 33.21 33.39 33.69 33.27 32.87 32.68 33.00 32.45 32.95 34.17 34.35 34.70 35.14 35.66 36.52 37.91 39.82 42.75 45.62 48.69 52.42 53.50 53.59 53.88 54.10 48.56 35.86 48.44 44.11 51.60 51.13 50.96 50.46 49.63 49.21 48.30 47.28 45.35
34.34 34.04 34.05 34.06 34.09 33.85 33.76 33.72 33.31 33.76 33.40 33.42 33.51 33.21 33.13 33.76 34.76 34.99 35.11 35.29 35.53 36.55 39.38 41.59 44.62 46.79 49.61 52.48 53.08 45.40 35.74 34.60 41.43 35.37 48.29 49.43 48.38 48.77 48.19 47.77 45.60 42.16 40.14
MSLP
1019.05 1019.37 1019.63 1020.07 1020.39 1020.68 1020.92 1021.20 1021.45 1021.64 1021.76 1021.90 1021.94 1022.10 1022.23 1022.43 1022.42 1022.35 1022.38 1022.31 1022.30 1022.32 1022.39 1022.27 1022.00 1021.75 1021.38 1021.08 1020.82 1020.47 1019.98 1019.75 1018.65 1017.85 1017.23 1016.68 1016.32 1015.70 1015.58 1015.44 1015.63 1015.65 1015.78
1019.11 1019.40 1019.64 1019.99 1020.34 1020.61 1020.90 1021.20 1021.41 1021.63 1021.80 1021.89 1022.02 1022.14 1022.34 1022.42 1022.49 1022.42 1022.34 1022.26 1022.30 1022.28 1022.20 1021.89 1021.70 1021.67 1021.47 1021.23 1020.91 1020.44 1019.89 1019.37 1018.84 1017.98 1017.21 1016.74 1016.15 1015.57 1015.30 1015.14 1014.84 1014.67 1014.87
1019.08 1019.29 1019.64 1019.82 1019.96 1020.25 1020.69 1020.99 1021.24 1021.50 1021.77 1021.99 1022.11 1022.16 1022.21 1022.28 1022.29 1022.27 1022.20 1022.35 1022.32 1022.12 1021.96 1021.78 1021.59 1021.53 1021.24 1020.96 1020.67 1020.28 1019.74 1019.02 1018.26 1017.69 1016.77 1016.22 1015.62 1015.39 1015.10 1014.90 1015.07 1014.79 1014.29
1018.67 1019.02 1019.35 1019.71 1020.03 1020.22 1020.43 1020.64 1020.95 1021.29 1021.57 1021.80 1021.88 1021.99 1022.10 1022.12 1022.15 1022.20 1022.27 1022.35 1022.17 1021.98 1021.88 1021.68 1021.37 1021.19 1020.93 1020.60 1020.07 1019.83 1019.34 1018.71 1018.02 1017.62 1016.97 1016.03 1015.31 1014.97 1014.87 1014.59 1015.13 1015.04 1014.76
1017.93 1018.42 1018.83 1019.22 1019.70 1020.16 1020.27 1020.44 1020.74 1021.03 1021.26 1021.50 1021.65 1021.77 1021.94 1021.96 1022.06 1022.30 1022.28 1022.13 1021.90 1021.69 1021.44 1021.35 1021.10 1021.00 1020.73 1020.40 1019.75 1019.14 1019.00 1018.41 1017.60 1016.91 1016.37 1015.84 1014.95 1014.88 1014.53 1014.44 1014.78 1015.04 1015.30
1017.90 1017.66 1018.20 1018.79 1019.24 1019.66 1019.89 1020.03 1020.32 1020.54 1020.80 1021.07 1021.25 1021.42 1021.58 1021.73 1022.36 1022.46 1022.31 1021.91 1021.83 1021.48 1021.23 1021.15 1021.01 1020.67 1020.44 1019.96 1019.23 1018.90 1018.78 1018.21 1017.61 1016.97 1016.06 1015.32 1014.75 1014.48 1014.36 1014.36 1014.73 1015.13 1015.89
1016.84 1017.02 1017.51 1018.07 1018.43 1018.97 1019.39 1019.49 1019.52 1019.92 1020.29 1020.67 1020.89 1021.08 1021.10 1021.42 1021.98 1022.26 1021.92 1021.64 1021.51 1021.27 1020.99 1020.89 1020.82 1021.01 1020.69 1019.75 1019.23 1018.93 1018.44 1018.12 1017.42 1016.93 1015.96 1015.13 1014.41 1014.00 1013.94 1014.00 1014.20 1014.44 1015.16
1015.85 1015.96 1016.59 1017.24 1017.63 1018.07 1018.58 1019.05 1019.06 1019.36 1019.78 1020.26 1020.50 1020.62 1020.82 1021.10 1021.44 1021.69 1021.58 1021.51 1021.44 1021.12 1020.85 1020.83 1021.02 1021.06 1020.75 1020.39 1019.89 1019.20 1018.57 1017.99 1017.38 1016.84 1016.16 1015.53 1014.96 1014.27 1013.82 1013.85 1014.34 1014.84 1015.53
1014.52 1014.95 1015.43 1016.32 1016.80 1017.32 1017.75 1018.23 1018.62 1018.92 1019.42 1019.80 1020.14 1020.24 1020.34 1020.69 1021.08 1021.06 1021.29 1021.27 1020.94 1020.77 1020.47 1020.84 1021.04 1020.83 1020.76 1020.29 1019.90 1019.37 1018.71 1018.10 1017.50 1017.09 1016.56 1016.05 1015.47 1014.77 1014.32 1014.24 1014.66 1015.08 1015.88
1013.54 1013.79 1014.45 1015.29 1016.04 1016.47 1017.14 1017.58 1018.14 1018.42 1018.82 1019.07 1019.63 1019.98 1019.99 1020.20 1020.49 1020.57 1020.86 1020.75 1020.44 1020.19 1020.23 1020.71 1020.83 1020.84 1020.86 1020.53 1019.93 1019.51 1019.04 1018.56 1017.90 1017.34 1016.86 1016.33 1016.01 1015.75 1015.44 1015.16 1015.13 1015.38 1015.82
1012.57 1013.10 1013.84 1014.40 1015.25 1015.73 1016.51 1017.07 1017.58 1017.85 1018.09 1018.57 1019.09 1019.39 1019.43 1019.74 1019.74 1019.96 1020.59 1020.51 1020.15 1019.87 1019.87 1020.37 1020.51 1020.45 1020.78 1020.45 1020.25 1019.87 1019.47 1018.90 1018.13 1017.59 1017.12 1016.81 1016.55 1016.36 1016.18 1016.10 1015.94 1016.03 1016.17
1012.09 1012.50 1013.08 1013.57 1014.21 1015.23 1015.80 1016.41 1016.86 1017.13 1017.53 1017.86 1018.38 1018.71 1018.65 1018.97 1019.30 1019.52 1020.09 1020.29 1020.23 1019.88 1019.66 1019.76 1019.95 1020.18 1020.39 1020.03 1019.87 1019.41 1019.08 1018.63 1018.05 1017.38 1017.04 1016.78 1016.63 1016.67 1016.64 1016.43 1016.38 1016.38 1016.48
1011.73 1012.04 1012.60 1013.04 1013.21 1014.31 1014.98 1015.64 1015.99 1016.45 1016.74 1016.89 1017.46 1017.71 1017.67 1018.07 1018.33 1019.06 1019.52 1019.73 1020.11 1020.11 1019.45 1019.53 1019.94 1019.96 1020.00 1019.68 1019.24 1018.84 1018.40 1018.08 1017.74 1017.09 1016.63 1016.46 1016.43 1016.53 1016.45 1016.38 1016.52 1016.52 1016.68
1011.34 1011.52 1012.01 1012.39 1012.65 1013.43 1013.88 1014.65 1014.93 1015.42 1015.89 1016.13 1016.50 1016.93 1017.16 1017.56 1017.64 1018.06 1018.91 1019.10 1019.54 1019.41 1019.12 1019.28 1019.50 1019.49 1019.35 1019.11 1018.59 1017.91 1017.48 1017.31 1017.07 1016.83 1016.49 1016.29 1016.28 1016.17 1016.09 1016.13 1015.94 1016.04 1016.05
1010.96 1011.09 1011.38 1011.73 1011.83 1012.76 1012.82 1013.51 1013.72 1013.94 1014.61 1015.16 1015.55 1015.99 1016.14 1016.38 1016.67 1017.18 1017.89 1017.98 1018.21 1018.27 1018.32 1018.47 1018.43 1018.02 1017.72 1017.49 1017.33 1017.09 1016.85 1016.75 1016.60 1016.35 1016.18 1016.00 1015.81 1015.81 1015.79 1015.99 1016.09 1015.96 1015.98
1010.48 1010.41 1010.54 1010.97 1011.06 1011.60 1011.91 1012.93 1013.48 1013.20 1014.07 1014.66 1015.03 1015.37 1015.79 1015.86 1016.28 1016.86 1017.49 1017.78 1017.91 1017.97 1017.87 1017.67 1017.43 1017.22 1016.92 1016.48 1016.14 1016.00 1015.99 1016.27 1016.09 1016.02 1015.94 1015.89 1015.63 1015.42 1015.33 1015.42 1015.55 1015.41 1015.16
1010.00 1009.99 1009.97 1010.17 1010.35 1010.81 1011.17 1011.71 1012.32 1013.35 1013.79 1014.25 1014.70 1015.01 1015.40 1015.39 1016.05 1016.38 1016.86 1017.19 1017.65 1017.98 1017.30 1016.67 1016.64 1016.44 1016.14 1015.81 1015.45 1015.23 1014.93 1015.05 1015.63 1015.59 1015.49 1015.31 1015.20 1015.10 1015.19 1015.01 1014.88 1014.82 1014.59
1009.64 1009.51 1009.72 1009.83 1009.67 1009.70 1009.96 1010.49 1010.95 1011.42 1012.33 1013.18 1013.89 1014.39 1014.77 1015.06 1015.30 1015.83 1016.29 1016.82 1017.09 1017.24 1016.13 1015.39 1015.23 1015.24 1015.12 1015.02 1014.85 1014.55 1014.29 1014.22 1014.39 1014.53 1014.61 1014.73 1014.72 1014.64 1014.45 1014.35 1014.28 1014.23 1014.01
1009.59 1009.03 1009.21 1009.13 1009.26 1009.17 1009.27 1009.59 1010.00 1010.43 1010.84 1011.31 1011.81 1013.05 1013.73 1014.15 1014.55 1015.19 1015.82 1015.61 1014.98 1014.70 1014.33 1014.31 1014.03 1014.06 1014.06 1014.09 1014.12 1014.07 1013.86 1013.62 1013.43 1013.37 1013.49 1013.59 1013.59 1013.58 1013.58 1013.56 1013.47 1013.66 1013.65
1009.51 1008.89 1008.54 1008.31 1008.76 1008.84 1009.07 1008.76 1009.02 1009.40 1009.93 1010.36 1010.52 1010.97 1011.52 1012.95 1013.59 1013.78 1013.89 1013.81 1013.36 1013.13 1012.74 1012.58 1012.55 1012.65 1012.84 1012.90 1012.86 1013.05 1013.05 1012.97 1012.91 1012.81 1012.73 1012.69 1012.67 1012.71 1012.63 1012.54 1012.46 1012.36 1012.32
1009.38 1008.57 1008.07 1007.82 1007.65 1007.54 1008.14 1008.58 1008.54 1008.73 1009.02 1009.27 1009.40 1009.72 1010.35 1011.27 1011.30 1011.59 1011.60 1011.85 1012.02 1011.67 1011.47 1011.30 1011.41 1011.41 1011.62 1011.86 1011.76 1011.64 1011.75 1011.83 1011.76 1011.75 1011.73 1011.80 1011.97 1011.93 1011.95 1011.83 1011.82 1011.81 1011.77
1009.72 1009.20 1008.57 1008.05 1007.85 1007.72 1007.67 1007.75 1008.11 1008.00 1008.03 1008.34 1008.91 1009.54 1010.28 1010.45 1010.60 1010.55 1010.55 1010.41 1010.77 1010.92 1010.76 1010.53 1010.39 1010.43 1010.44 1010.55 1010.68 1010.76 1010.76 1010.71 1010.80 1010.83 1010.93 1010.99 1011.07 1011.08 1011.03 1010.99 1011.07 1011.12 1011.13
1010.86 1010.39 1009.83 1009.59 1009.26 1009.18 1009.50 1009.59 1009.60 1009.35 1009.47 1009.52 1009.78 1010.37 1010.88 1010.93 1010.82 1010.76 1010.42 1010.14 1010.11 1010.11 1010.14 1010.16 1010.00 1009.64 1009.48 1009.55 1009.69 1009.90 1009.80 1009.76 1009.89 1010.10 1010.04 1010.08 1010.08 1010.13 1010.18 1010.27 1010.43 1010.50 1010.62
1012.67 1012.11 1012.14 1011.37 1011.17 1010.72 1011.05 1011.07 1011.24 1011.32 1011.39 1011.46 1011.83 1012.36 1012.39 1012.20 1012.02 1012.20 1012.16 1011.96 1011.68 1011.38 1010.71 1010.00 1009.53 1009.26 1008.93 1008.90 1008.87 1008.97 1008.92 1008.96 1009.14 1009.36 1009.65 1009.63 1009.38 1009.47 1009.83 1009.76 1009.82 1010.13 1010.63
1014.05 1013.51 1013.09 1013.01 1012.90 1012.98 1013.01 1013.12 1012.86 1012.82 1012.99 1013.06 1013.07 1013.12 1013.70 1013.55 1013.26 1012.91 1012.64 1012.48 1012.11 1011.70 1011.02 1010.40 1009.77 1009.01 1008.44 1008.21 1008.22 1008.26 1008.37 1008.80 1008.77 1008.84 1009.09 1009.25 1009.19 1009.16 1009.32 1009.31 1009.83 1010.34 1010.88
1015.38 1014.99 1014.96 1015.06 1015.01 1014.88 1014.77 1014.65 1014.49 1014.06 1014.05 1014.21 1014.34 1014.41 1014.23 1014.08 1013.89 1013.70 1012.72 1012.76 1012.40 1011.84 1011.37 1010.42 1009.55 1009.05 1008.58 1007.73 1007.53 1007.68 1008.01 1008.47 1008.81 1008.83 1008.76 1008.76 1009.00 1009.00 1009.07 1009.22 1009.84 1010.57 1011.11
Wind_Speed
10 10 11 10 10 9 8 7 7 7 6 6 6 6 6 5 6 5 5 5 6 6 6 6 7 8 6 6 6 7 7 5 7 6 5 7 10 9 10 12 13 14 14
9 10 10 10 10 9 8 7 7 6 5 5 5 5 4 5 5 5 5 5 5 5 5 6 6 4 7 7 6 8 8 9 8 12 10 9 9 8 8 9 11 11 13
10 10 10 10 10 10 10 9 8 7 5 4 4 4 4 4 4 5 5 5 4 4 5 6 6 7 7 6 6 7 8 9 10 11 13 11 8 7 6 5 6 7 7
10 10 11 10 10 9 10 9 8 7 6 5 4 3 3 3 3 5 4 4 5 5 6 7 7 8 10 10 10 9 8 9 9 8 9 12 10 6 6 4 3 2 4
12 12 11 11 10 10 10 10 9 8 6 5 5 4 3 2 2 3 3 4 5 7 7 7 6 10 14 15 11 11 9 8 9 9 9 9 8 4 5 2 4 2 4
13 13 12 12 12 12 11 11 9 7 6 5 5 4 5 3 4 3 4 3 5 6 7 8 8 10 14 16 14 13 8 8 11 8 10 11 11 7 6 5 5 4 3
16 13 13 13 13 12 11 11 10 7 6 5 5 6 6 5 7 8 5 3 4 4 5 7 9 7 10 12 11 11 8 9 8 8 8 9 9 6 5 6 7 8 4
16 16 15 14 13 13 12 11 9 7 7 5 5 5 4 5 8 11 7 4 5 5 4 6 6 7 8 11 10 9 8 7 7 7 6 6 4 2 4 5 6 6 9
18 18 16 15 14 13 13 12 9 8 7 6 5 5 4 5 8 10 8 8 6 5 4 3 5 8 11 15 8 8 8 8 9 9 8 10 12 13 10 9 7 9 8
18 18 17 16 15 15 13 12 10 8 8 6 6 6 3 7 7 9 9 6 6 4 2 3 3 4 8 11 9 8 7 9 8 8 7 6 6 9 10 7 4 7 6
17 17 17 17 16 14 13 11 11 10 8 7 7 7 7 7 6 8 11 8 6 4 4 3 4 5 6 9 10 6 8 9 9 6 5 3 4 5 4 4 5 5 3
15 16 17 15 14 12 14 12 11 10 9 8 8 8 7 7 9 9 11 12 6 6 4 4 4 2 4 7 6 11 9 8 5 5 2 3 2 2 2 2 2 2 2
14 15 17 13 15 15 14 13 10 11 9 8 8 8 7 6 5 9 10 11 11 9 6 4 7 3 8 10 9 13 9 4 5 4 2 4 3 3 2 2 4 3 4
12 15 13 11 13 13 12 11 10 11 10 9 9 8 7 6 6 6 9 9 13 10 10 9 6 5 9 13 11 7 6 5 5 4 5 4 3 3 3 2 3 3 4
11 11 11 10 11 13 13 12 13 13 12 11 11 9 9 9 8 7 8 7 7 7 5 6 7 8 8 7 6 6 5 4 4 4 5 4 4 4 3 2 4 4 5
9 8 9 8 9 10 11 10 8 7 14 12 9 10 9 8 8 11 12 9 9 8 6 8 8 8 8 7 6 5 4 4 4 4 4 4 4 3 3 3 5 5 6
8 6 6 10 10 10 10 10 10 10 7 15 14 13 14 10 14 12 12 10 6 7 9 8 9 9 9 8 7 6 5 3 3 5 4 4 4 4 4 5 5 6 7
5 6 5 6 8 9 10 11 11 12 13 13 15 16 17 16 13 12 10 9 8 7 10 10 9 9 9 8 8 7 6 6 6 6 6 6 6 6 5 6 6 7 7
7 6 5 6 8 8 9 12 11 12 12 11 11 11 18 16 14 7 14 10 11 12 11 11 10 10 10 9 8 9 9 7 7 7 7 7 8 8 8 8 8 7 6
11 12 10 6 6 7 8 9 11 12 11 12 11 12 11 8 11 12 11 11 12 12 11 12 11 11 11 10 9 9 9 9 9 9 10 9 9 8 9 10 10 10 9
8 9 7 7 10 8 9 10 10 10 12 12 12 12 10 11 12 11 11 11 11 12 12 11 11 11 10 11 10 10 10 10 10 10 9 9 9 9 9 9 9 9 9
7 6 7 3 6 3 6 7 9 10 12 11 10 9 10 10 9 9 9 9 10 11 11 11 10 11 11 10 10 10 10 11 10 10 10 10 10 10 10 10 10 10 9
11 12 12 10 10 12 11 10 9 10 10 8 7 7 5 3 3 4 6 6 7 8 9 9 10 10 10 10 10 10 11 11 10 9 10 10 10 10 9 10 10 9 8
11 13 11 11 12 12 11 11 10 13 11 10 9 9 7 5 5 5 5 6 7 9 10 10 10 13 11 11 10 10 10 11 9 10 13 11 10 9 9 9 9 9 6
12 13 13 12 11 10 10 10 9 10 9 8 7 6 5 7 7 6 6 6 7 8 11 10 10 15 16 17 17 17 12 6 11 6 8 11 12 11 9 8 7 6 5
12 13 12 11 11 10 9 9 9 9 9 9 8 7 7 7 8 7 8 8 7 8 12 8 11 16 20 16 17 12 5 6 9 9 10 8 9 8 8 8 9 6 6
Wind_Direction
160 149 146 146 146 145 142 137 132 129 120 105 88 83 74 66 52 50 47 30 18 7 359 348 337 331 318 308 306 299 302 312 297 303 294 302 293 259 237 228 224 214 212
167 163 154 148 151 146 142 139 142 134 131 124 114 105 100 83 76 63 50 36 14 358 341 336 330 329 326 330 315 316 304 297 290 286 289 291 271 264 261 258 234 227 223
178 171 166 167 164 158 154 151 153 151 145 145 147 122 103 95 71 51 38 24 359 342 328 312 309 305 299 298 300 299 297 297 300 294 289 277 275 271 250 243 256 244 235
187 185 179 178 176 169 163 161 162 164 164 168 158 133 115 90 63 41 32 12 358 349 335 322 317 311 300 294 283 281 286 290 302 286 282 285 272 254 241 227 226 243 233
190 193 191 180 176 175 173 169 166 171 171 172 169 169 170 165 75 18 19 8 354 341 343 330 325 322 317 310 293 275 277 286 301 299 284 273 259 226 225 186 208 102 24
210 196 188 181 180 184 181 175 173 170 170 182 196 203 204 211 149 232 281 350 331 344 341 343 341 331 337 315 328 283 299 309 307 300 293 278 262 245 227 195 156 163 136
207 200 194 188 186 188 189 186 181 182 180 208 224 225 222 233 197 228 208 271 318 334 347 343 339 4 342 356 359 326 298 312 339 306 309 294 276 242 201 182 186 180 137
209 201 197 196 192 189 192 202 187 179 192 212 234 230 236 247 207 220 208 265 280 301 334 343 1 326 344 349 333 348 350 341 354 331 345 338 311 269 209 163 145 119 108
210 207 199 199 196 194 199 202 195 181 187 198 227 216 215 257 219 202 190 234 250 279 344 347 353 329 344 336 323 325 342 346 339 353 20 38 31 36 49 112 116 120 124
223 217 202 196 200 199 203 200 192 190 194 194 214 216 195 248 189 194 195 238 246 264 310 260 319 323 337 343 0 356 325 341 356 340 347 12 45 50 54 54 78 89 92
228 216 202 195 199 197 199 195 189 188 188 200 216 215 221 244 224 184 202 234 249 265 308 251 266 276 320 345 341 341 327 316 319 323 320 333 353 15 31 28 39 84 105
239 220 205 192 188 193 193 191 192 186 194 203 211 220 218 233 218 187 202 221 229 264 261 252 275 292 271 277 289 285 296 305 314 319 359 22 86 134 149 187 265 238 18
240 221 211 190 186 190 190 190 188 191 199 200 204 216 213 205 210 201 203 215 231 249 253 277 303 333 264 286 248 291 285 276 304 301 330 320 15 56 61 194 228 256 253
232 227 212 191 185 192 191 191 191 189 197 201 200 211 205 204 210 198 210 210 230 232 233 245 259 293 280 268 279 279 297 298 292 282 293 302 284 251 217 235 254 220 241
228 215 203 200 179 201 196 196 199 197 195 196 200 206 201 202 204 192 209 197 207 212 235 237 236 236 257 282 293 297 301 288 271 273 280 285 288 290 276 264 262 254 256
239 222 205 195 186 195 197 196 232 202 184 210 203 207 217 242 155 175 211 226 213 173 213 246 260 264 269 272 266 278 279 263 286 306 301 284 280 264 255 234 238 237 245
244 245 221 209 189 193 193 196 196 208 198 208 211 208 228 254 204 197 196 211 202 166 232 241 258 260 265 269 264 254 244 234 257 271 273 271 264 254 223 245 239 244 248
240 240 243 223 216 201 198 205 206 209 203 216 217 222 225 230 218 209 202 151 205 218 251 239 243 253 255 257 263 258 245 226 217 231 243 252 260 265 259 246 244 252 257
302 230 223 215 222 212 215 210 207 210 215 214 212 191 221 220 223 188 167 236 237 236 233 239 241 246 247 248 251 261 259 253 249 237 234 237 243 246 251 251 252 244 261
280 275 250 205 217 203 219 210 211 208 210 214 212 215 201 182 206 213 210 224 231 239 237 240 242 238 241 241 241 244 253 246 237 231 238 240 241 244 250 254 256 260 260
279 279 262 251 208 203 206 215 214 207 207 214 216 216 203 199 212 217 220 214 234 241 243 238 246 245 241 243 241 238 240 244 245 246 243 239 239 240 240 248 256 259 262
14 23 15 22 67 16 227 212 213 210 211 212 218 217 161 210 233 229 227 230 227 235 247 247 244 246 248 246 247 244 244 243 244 240 239 240 237 237 241 247 253 259 263
29 33 36 39 47 67 54 49 41 50 41 29 53 61 65 26 333 308 298 284 274 260 256 251 254 250 249 245 241 242 246 243 246 245 238 236 237 238 239 244 248 245 238
32 39 40 43 42 47 46 47 54 49 49 52 39 32 33 37 42 12 346 333 318 311 311 290 265 263 262 253 252 244 237 242 244 242 245 248 241 229 243 242 238 238 234
31 35 36 36 41 43 43 43 46 53 55 48 43 40 16 13 12 8 360 339 324 310 294 284 286 279 265 259 256 257 256 223 232 243 236 240 245 241 232 223 216 210 201
33 38 43 43 44 45 43 46 43 44 46 44 40 35 32 14 12 357 8 349 330 320 308 300 294 289 288 276 264 264 182 185 227 215 233 230 232 218 204 198 179 178 179